Year,Month,Day,Hour,Minute,Value (Times are PST for temperature in C)
2006,08,08,00,00,13.20
2006,08,08,00,01,13.20
2006,08,08,00,02,13.00
2006,08,08,00,03,12.80
2006,08,08,00,04,12.80
2006,08,08,00,05,12.70
2006,08,08,00,06,12.60
2006,08,08,00,07,12.60
2006,08,08,00,08,12.50
2006,08,08,00,09,12.50
2006,08,08,00,10,12.50
2006,08,08,00,11,12.60
2006,08,08,00,12,12.60
2006,08,08,00,13,12.60
2006,08,08,00,14,12.70
2006,08,08,00,15,12.70
2006,08,08,00,16,12.70
2006,08,08,00,17,12.80
2006,08,08,00,18,12.80
2006,08,08,00,19,12.80
2006,08,08,00,20,12.90
2006,08,08,00,21,13.00
2006,08,08,00,22,13.10
2006,08,08,00,23,13.20
2006,08,08,00,24,13.30
2006,08,08,00,25,13.40
2006,08,08,00,26,13.50
2006,08,08,00,27,13.50
2006,08,08,00,28,13.50
2006,08,08,00,29,13.50
2006,08,08,00,30,13.60
2006,08,08,00,31,13.60
2006,08,08,00,32,13.60
2006,08,08,00,33,13.60
2006,08,08,00,34,13.60
2006,08,08,00,35,13.50
2006,08,08,00,36,13.40
2006,08,08,00,37,13.40
2006,08,08,00,38,13.30
2006,08,08,00,39,13.30
2006,08,08,00,40,13.20
2006,08,08,00,41,13.20
2006,08,08,00,42,13.20
2006,08,08,00,43,13.20
2006,08,08,00,44,13.40
2006,08,08,00,45,13.60
2006,08,08,00,46,13.70
2006,08,08,00,47,13.80
2006,08,08,00,48,13.90
2006,08,08,00,49,14.00
2006,08,08,00,50,14.10
2006,08,08,00,51,14.20
2006,08,08,00,52,14.30
2006,08,08,00,53,14.40
2006,08,08,00,54,14.50
2006,08,08,00,55,14.60
2006,08,08,00,56,14.60
2006,08,08,00,57,14.70
2006,08,08,00,58,14.70
2006,08,08,00,59,14.70
2006,08,08,01,00,14.80
2006,08,08,01,01,14.80
2006,08,08,01,02,14.80
2006,08,08,01,03,14.80
2006,08,08,01,04,14.80
2006,08,08,01,05,14.90
2006,08,08,01,06,14.90
2006,08,08,01,07,15.00
2006,08,08,01,08,15.00
2006,08,08,01,09,15.00
2006,08,08,01,10,15.00
2006,08,08,01,11,15.00
2006,08,08,01,12,15.00
2006,08,08,01,13,15.10
2006,08,08,01,14,15.10
2006,08,08,01,15,15.10
2006,08,08,01,16,15.10
2006,08,08,01,17,15.10
2006,08,08,01,18,15.20
2006,08,08,01,19,15.10
2006,08,08,01,20,15.10
2006,08,08,01,21,15.10
2006,08,08,01,22,15.10
2006,08,08,01,23,15.10
2006,08,08,01,24,15.10
2006,08,08,01,25,15.10
2006,08,08,01,26,15.00
2006,08,08,01,27,15.00
2006,08,08,01,28,14.90
2006,08,08,01,29,14.90
2006,08,08,01,30,14.80
2006,08,08,01,31,14.80
2006,08,08,01,32,14.80
2006,08,08,01,33,14.70
2006,08,08,01,34,14.70
2006,08,08,01,35,14.60
2006,08,08,01,36,14.60
2006,08,08,01,37,14.50
2006,08,08,01,38,14.50
2006,08,08,01,39,14.40
2006,08,08,01,40,14.50
2006,08,08,01,41,14.50
2006,08,08,01,42,14.50
2006,08,08,01,43,14.40
2006,08,08,01,44,14.30
2006,08,08,01,45,14.30
2006,08,08,01,46,14.20
2006,08,08,01,47,14.10
2006,08,08,01,48,14.00
2006,08,08,01,49,13.90
2006,08,08,01,50,13.80
2006,08,08,01,51,13.80
2006,08,08,01,52,13.90
2006,08,08,01,53,13.90
2006,08,08,01,54,13.90
2006,08,08,01,55,13.80
2006,08,08,01,56,13.80
2006,08,08,01,57,13.70
2006,08,08,01,58,13.50
2006,08,08,01,59,13.40
2006,08,08,02,00,13.20
2006,08,08,02,01,13.00
2006,08,08,02,02,12.90
2006,08,08,02,03,12.80
2006,08,08,02,04,12.70
2006,08,08,02,05,12.60
2006,08,08,02,06,12.50
2006,08,08,02,07,12.50
2006,08,08,02,08,12.50
2006,08,08,02,09,12.50
2006,08,08,02,10,12.60
2006,08,08,02,11,12.60
2006,08,08,02,12,12.60
2006,08,08,02,13,12.60
2006,08,08,02,14,12.70
2006,08,08,02,15,12.60
2006,08,08,02,16,12.60
2006,08,08,02,17,12.60
2006,08,08,02,18,12.50
2006,08,08,02,19,12.40
2006,08,08,02,20,12.30
2006,08,08,02,21,12.20
2006,08,08,02,22,12.10
2006,08,08,02,23,12.00
2006,08,08,02,24,11.90
2006,08,08,02,25,11.90
2006,08,08,02,26,11.80
2006,08,08,02,27,11.80
2006,08,08,02,28,11.80
2006,08,08,02,29,11.80
2006,08,08,02,30,11.80
2006,08,08,02,31,11.80
2006,08,08,02,32,11.70
2006,08,08,02,33,11.60
2006,08,08,02,34,11.60
2006,08,08,02,35,11.60
2006,08,08,02,36,11.50
2006,08,08,02,37,11.40
2006,08,08,02,38,11.40
2006,08,08,02,39,11.40
2006,08,08,02,40,11.40
2006,08,08,02,41,11.40
2006,08,08,02,42,11.30
2006,08,08,02,43,11.30
2006,08,08,02,44,11.30
2006,08,08,02,45,11.30
2006,08,08,02,46,11.30
2006,08,08,02,47,11.20
2006,08,08,02,48,11.20
2006,08,08,02,49,11.10
2006,08,08,02,50,11.10
2006,08,08,02,51,11.10
2006,08,08,02,52,10.90
2006,08,08,02,53,10.90
2006,08,08,02,54,10.90
2006,08,08,02,55,10.90
2006,08,08,02,56,10.90
2006,08,08,02,57,10.90
2006,08,08,02,58,10.90
2006,08,08,02,59,10.90
2006,08,08,03,00,10.90
2006,08,08,03,01,10.90
2006,08,08,03,02,10.90
2006,08,08,03,03,11.10
2006,08,08,03,04,11.10
2006,08,08,03,05,11.00
2006,08,08,03,06,10.90
2006,08,08,03,07,10.90
2006,08,08,03,08,10.90
2006,08,08,03,09,10.90
2006,08,08,03,10,10.90
2006,08,08,03,11,10.90
2006,08,08,03,12,10.90
2006,08,08,03,13,10.80
2006,08,08,03,14,10.80
2006,08,08,03,15,10.70
2006,08,08,03,16,10.60
2006,08,08,03,17,10.60
2006,08,08,03,18,10.60
2006,08,08,03,19,10.60
2006,08,08,03,20,10.40
2006,08,08,03,21,10.40
2006,08,08,03,22,10.40
2006,08,08,03,23,10.40
2006,08,08,03,24,10.40
2006,08,08,03,25,10.40
2006,08,08,03,26,10.40
2006,08,08,03,27,10.30
2006,08,08,03,28,10.30
2006,08,08,03,29,10.30
2006,08,08,03,30,10.30
2006,08,08,03,31,10.20
2006,08,08,03,32,10.20
2006,08,08,03,33,10.20
2006,08,08,03,34,10.20
2006,08,08,03,35,10.20
2006,08,08,03,36,10.20
2006,08,08,03,37,10.20
2006,08,08,03,38,10.10
2006,08,08,03,39,10.10
2006,08,08,03,40,10.10
2006,08,08,03,41,10.00
2006,08,08,03,42,9.90
2006,08,08,03,43,9.90
2006,08,08,03,44,9.90
2006,08,08,03,45,9.80
2006,08,08,03,46,9.80
2006,08,08,03,47,9.80
2006,08,08,03,48,9.80
2006,08,08,03,49,9.80
2006,08,08,03,50,9.80
2006,08,08,03,51,9.80
2006,08,08,03,52,9.80
2006,08,08,03,53,9.90
2006,08,08,03,54,9.90
2006,08,08,03,55,9.90
2006,08,08,03,56,9.90
2006,08,08,03,57,9.90
2006,08,08,03,58,9.90
2006,08,08,03,59,9.90
2006,08,08,04,00,9.90
2006,08,08,04,01,9.90
2006,08,08,04,02,9.90
2006,08,08,04,03,9.90
2006,08,08,04,04,9.90
2006,08,08,04,05,9.90
2006,08,08,04,06,9.90
2006,08,08,04,07,9.90
2006,08,08,04,08,9.80
2006,08,08,04,09,9.80
2006,08,08,04,10,9.80
2006,08,08,04,11,9.80
2006,08,08,04,12,9.70
2006,08,08,04,13,9.70
2006,08,08,04,14,9.70
2006,08,08,04,15,9.70
2006,08,08,04,16,9.70
2006,08,08,04,17,9.70
2006,08,08,04,18,9.70
2006,08,08,04,19,9.70
2006,08,08,04,20,9.70
2006,08,08,04,21,9.60
2006,08,08,04,22,9.60
2006,08,08,04,23,9.60
2006,08,08,04,24,9.50
2006,08,08,04,25,9.50
2006,08,08,04,26,9.40
2006,08,08,04,27,9.30
2006,08,08,04,28,9.30
2006,08,08,04,29,9.20
2006,08,08,04,30,9.20
2006,08,08,04,31,9.20
2006,08,08,04,32,9.10
2006,08,08,04,33,9.10
2006,08,08,04,34,9.10
2006,08,08,04,35,9.10
2006,08,08,04,36,9.10
2006,08,08,04,37,9.10
2006,08,08,04,38,9.10
2006,08,08,04,39,9.10
2006,08,08,04,40,9.20
2006,08,08,04,41,9.20
2006,08,08,04,42,9.20
2006,08,08,04,43,9.20
2006,08,08,04,44,9.20
2006,08,08,04,45,9.30
2006,08,08,04,46,9.30
2006,08,08,04,47,9.40
2006,08,08,04,48,9.40
2006,08,08,04,49,9.40
2006,08,08,04,50,9.50
2006,08,08,04,51,9.50
2006,08,08,04,52,9.60
2006,08,08,04,53,9.60
2006,08,08,04,54,9.60
2006,08,08,04,55,9.60
2006,08,08,04,56,9.60
2006,08,08,04,57,9.60
2006,08,08,04,58,9.50
2006,08,08,04,59,9.50
2006,08,08,05,00,9.40
2006,08,08,05,01,9.40
2006,08,08,05,02,9.40
2006,08,08,05,03,9.30
2006,08,08,05,04,9.30
2006,08,08,05,05,9.30
2006,08,08,05,06,9.30
2006,08,08,05,07,9.20
2006,08,08,05,08,9.20
2006,08,08,05,09,9.20
2006,08,08,05,10,9.20
2006,08,08,05,11,9.20
2006,08,08,05,12,9.20
2006,08,08,05,13,9.20
2006,08,08,05,14,9.20
2006,08,08,05,15,9.20
2006,08,08,05,16,9.20
2006,08,08,05,17,9.20
2006,08,08,05,18,9.20
2006,08,08,05,19,9.20
2006,08,08,05,20,9.20
2006,08,08,05,21,9.20
2006,08,08,05,22,9.20
2006,08,08,05,23,9.20
2006,08,08,05,24,9.20
2006,08,08,05,25,9.20
2006,08,08,05,26,9.20
2006,08,08,05,27,9.20
2006,08,08,05,28,9.20
2006,08,08,05,29,9.20
2006,08,08,05,30,9.20
2006,08,08,05,31,9.10
2006,08,08,05,32,9.10
2006,08,08,05,33,9.10
2006,08,08,05,34,9.00
2006,08,08,05,35,9.00
2006,08,08,05,36,9.00
2006,08,08,05,37,8.90
2006,08,08,05,38,8.90
2006,08,08,05,39,8.90
2006,08,08,05,40,8.90
2006,08,08,05,41,8.90
2006,08,08,05,42,8.90
2006,08,08,05,43,8.90
2006,08,08,05,44,8.90
2006,08,08,05,45,8.90
2006,08,08,05,46,8.90
2006,08,08,05,47,9.00
2006,08,08,05,48,9.00
2006,08,08,05,49,9.00
2006,08,08,05,50,9.00
2006,08,08,05,51,9.00
2006,08,08,05,52,9.10
2006,08,08,05,53,9.10
2006,08,08,05,54,9.10
2006,08,08,05,55,9.10
2006,08,08,05,56,9.10
2006,08,08,05,57,9.10
2006,08,08,05,58,9.00
2006,08,08,05,59,9.00
2006,08,08,06,00,9.00
2006,08,08,06,01,9.00
2006,08,08,06,02,9.00
2006,08,08,06,03,9.00
2006,08,08,06,04,9.00
2006,08,08,06,05,9.00
2006,08,08,06,06,8.90
2006,08,08,06,07,8.90
2006,08,08,06,08,8.90
2006,08,08,06,09,8.90
2006,08,08,06,10,8.90
2006,08,08,06,11,8.80
2006,08,08,06,12,8.80
2006,08,08,06,13,8.80
2006,08,08,06,14,8.70
2006,08,08,06,15,8.70
2006,08,08,06,16,8.70
2006,08,08,06,17,8.80
2006,08,08,06,18,8.80
2006,08,08,06,19,8.80
2006,08,08,06,20,8.80
2006,08,08,06,21,8.90
2006,08,08,06,22,8.90
2006,08,08,06,23,8.90
2006,08,08,06,24,9.00
2006,08,08,06,25,9.00
2006,08,08,06,26,9.10
2006,08,08,06,27,9.10
2006,08,08,06,28,9.20
2006,08,08,06,29,9.20
2006,08,08,06,30,9.20
2006,08,08,06,31,9.20
2006,08,08,06,32,9.20
2006,08,08,06,33,9.20
2006,08,08,06,34,9.30
2006,08,08,06,35,9.30
2006,08,08,06,36,9.40
2006,08,08,06,37,9.50
2006,08,08,06,38,9.50
2006,08,08,06,39,9.60
2006,08,08,06,40,9.70
2006,08,08,06,41,9.70
2006,08,08,06,42,9.80
2006,08,08,06,43,9.90
2006,08,08,06,44,10.00
2006,08,08,06,45,10.10
2006,08,08,06,46,10.10
2006,08,08,06,47,10.20
2006,08,08,06,48,10.20
2006,08,08,06,49,10.30
2006,08,08,06,50,10.30
2006,08,08,06,51,10.40
2006,08,08,06,52,10.40
2006,08,08,06,53,10.40
2006,08,08,06,54,10.40
2006,08,08,06,55,10.40
2006,08,08,06,56,10.50
2006,08,08,06,57,10.60
2006,08,08,06,58,10.60
2006,08,08,06,59,10.60
2006,08,08,07,00,10.60
2006,08,08,07,01,10.60
2006,08,08,07,02,10.60
2006,08,08,07,03,10.70
2006,08,08,07,04,10.70
2006,08,08,07,05,10.70
2006,08,08,07,06,10.80
2006,08,08,07,07,10.80
2006,08,08,07,08,10.90
2006,08,08,07,09,10.90
2006,08,08,07,10,11.00
2006,08,08,07,11,11.10
2006,08,08,07,12,11.10
2006,08,08,07,13,11.20
2006,08,08,07,14,11.20
2006,08,08,07,15,11.30
2006,08,08,07,16,11.40
2006,08,08,07,17,11.60
2006,08,08,07,18,11.60
2006,08,08,07,19,11.90
2006,08,08,07,20,12.00
2006,08,08,07,21,12.20
2006,08,08,07,22,12.30
2006,08,08,07,23,12.50
2006,08,08,07,24,12.70
2006,08,08,07,25,12.80
2006,08,08,07,26,12.90
2006,08,08,07,27,13.00
2006,08,08,07,28,13.10
2006,08,08,07,29,13.30
2006,08,08,07,30,13.40
2006,08,08,07,31,13.50
2006,08,08,07,32,13.60
2006,08,08,07,33,13.70
2006,08,08,07,34,13.90
2006,08,08,07,35,14.00
2006,08,08,07,36,14.10
2006,08,08,07,37,14.30
2006,08,08,07,38,14.60
2006,08,08,07,39,14.80
2006,08,08,07,40,15.00
2006,08,08,07,41,15.20
2006,08,08,07,42,15.30
2006,08,08,07,43,15.30
2006,08,08,07,44,15.20
2006,08,08,07,45,15.10
2006,08,08,07,46,15.00
2006,08,08,07,47,14.90
2006,08,08,07,48,14.80
2006,08,08,07,49,14.80
2006,08,08,07,50,14.80
2006,08,08,07,51,14.80
2006,08,08,07,52,14.70
2006,08,08,07,53,14.70
2006,08,08,07,54,14.70
2006,08,08,07,55,14.70
2006,08,08,07,56,14.70
2006,08,08,07,57,14.80
2006,08,08,07,58,14.70
2006,08,08,07,59,14.70
2006,08,08,08,00,14.60
2006,08,08,08,01,14.60
2006,08,08,08,02,14.50
2006,08,08,08,03,14.40
2006,08,08,08,04,14.40
2006,08,08,08,05,14.30
2006,08,08,08,06,14.30
2006,08,08,08,07,14.20
2006,08,08,08,08,14.20
2006,08,08,08,09,14.20
2006,08,08,08,10,14.20
2006,08,08,08,11,14.20
2006,08,08,08,12,14.20
2006,08,08,08,13,14.20
2006,08,08,08,14,14.20
2006,08,08,08,15,14.20
2006,08,08,08,16,14.20
2006,08,08,08,17,14.20
2006,08,08,08,18,14.20
2006,08,08,08,19,14.20
2006,08,08,08,20,14.20
2006,08,08,08,21,14.20
2006,08,08,08,22,14.10
2006,08,08,08,23,14.10
2006,08,08,08,24,14.10
2006,08,08,08,25,14.10
2006,08,08,08,26,14.10
2006,08,08,08,27,14.10
2006,08,08,08,28,14.10
2006,08,08,08,29,14.10
2006,08,08,08,30,14.10
2006,08,08,08,31,14.10
2006,08,08,08,32,14.00
2006,08,08,08,33,14.00
2006,08,08,08,34,14.00
2006,08,08,08,35,14.00
2006,08,08,08,36,14.00
2006,08,08,08,37,14.00
2006,08,08,08,38,14.00
2006,08,08,08,39,14.00
2006,08,08,08,40,14.00
2006,08,08,08,41,14.00
2006,08,08,08,42,14.00
2006,08,08,08,43,14.00
2006,08,08,08,44,14.10
2006,08,08,08,45,14.10
2006,08,08,08,46,14.10
2006,08,08,08,47,14.10
2006,08,08,08,48,14.10
2006,08,08,08,49,14.10
2006,08,08,08,50,14.20
2006,08,08,08,51,14.20
2006,08,08,08,52,14.20
2006,08,08,08,53,14.20
2006,08,08,08,54,14.20
2006,08,08,08,55,14.20
2006,08,08,08,56,14.20
2006,08,08,08,57,14.20
2006,08,08,08,58,14.20
2006,08,08,08,59,14.20
2006,08,08,09,00,14.30
2006,08,08,09,01,14.30
2006,08,08,09,02,14.30
2006,08,08,09,03,14.30
2006,08,08,09,04,14.30
2006,08,08,09,05,14.40
2006,08,08,09,06,14.40
2006,08,08,09,07,14.40
2006,08,08,09,08,14.40
2006,08,08,09,09,14.40
2006,08,08,09,10,14.50
2006,08,08,09,11,14.50
2006,08,08,09,12,14.40
2006,08,08,09,13,14.40
2006,08,08,09,14,14.40
2006,08,08,09,15,14.40
2006,08,08,09,16,14.50
2006,08,08,09,17,14.50
2006,08,08,09,18,14.50
2006,08,08,09,19,14.50
2006,08,08,09,20,14.50
2006,08,08,09,21,14.50
2006,08,08,09,22,14.40
2006,08,08,09,23,14.40
2006,08,08,09,24,14.40
2006,08,08,09,25,14.40
2006,08,08,09,26,14.40
2006,08,08,09,27,14.40
2006,08,08,09,28,14.50
2006,08,08,09,29,14.50
2006,08,08,09,30,14.50
2006,08,08,09,31,14.50
2006,08,08,09,32,14.50
2006,08,08,09,33,14.60
2006,08,08,09,34,14.60
2006,08,08,09,35,14.60
2006,08,08,09,36,14.60
2006,08,08,09,37,14.70
2006,08,08,09,38,14.70
2006,08,08,09,39,14.70
2006,08,08,09,40,14.80
2006,08,08,09,41,14.80
2006,08,08,09,42,14.80
2006,08,08,09,43,14.80
2006,08,08,09,44,14.80
2006,08,08,09,45,14.80
2006,08,08,09,46,14.80
2006,08,08,09,47,14.80
2006,08,08,09,48,14.80
2006,08,08,09,49,14.80
2006,08,08,09,50,14.80
2006,08,08,09,51,14.80
2006,08,08,09,52,14.80
2006,08,08,09,53,14.80
2006,08,08,09,54,14.80
2006,08,08,09,55,14.80
2006,08,08,09,56,14.80
2006,08,08,09,57,14.80
2006,08,08,09,58,14.80
2006,08,08,09,59,14.80
2006,08,08,10,00,14.80
2006,08,08,10,01,14.80
2006,08,08,10,02,14.80
2006,08,08,10,03,14.80
2006,08,08,10,04,14.80
2006,08,08,10,05,14.80
2006,08,08,10,06,14.80
2006,08,08,10,07,14.80
2006,08,08,10,08,14.90
2006,08,08,10,09,14.90
2006,08,08,10,10,14.90
2006,08,08,10,11,14.90
2006,08,08,10,12,15.00
2006,08,08,10,13,15.00
2006,08,08,10,14,15.00
2006,08,08,10,15,15.00
2006,08,08,10,16,15.10
2006,08,08,10,17,15.00
2006,08,08,10,18,15.00
2006,08,08,10,19,15.00
2006,08,08,10,20,15.00
2006,08,08,10,21,15.00
2006,08,08,10,22,15.00
2006,08,08,10,23,15.10
2006,08,08,10,24,15.10
2006,08,08,10,25,15.20
2006,08,08,10,26,15.30
2006,08,08,10,27,15.30
2006,08,08,10,28,15.40
2006,08,08,10,29,15.40
2006,08,08,10,30,15.40
2006,08,08,10,31,15.40
2006,08,08,10,32,15.40
2006,08,08,10,33,15.50
2006,08,08,10,34,15.50
2006,08,08,10,35,15.50
2006,08,08,10,36,15.50
2006,08,08,10,37,15.40
2006,08,08,10,38,15.40
2006,08,08,10,39,15.30
2006,08,08,10,40,15.30
2006,08,08,10,41,15.30
2006,08,08,10,42,15.30
2006,08,08,10,43,15.40
2006,08,08,10,44,15.40
2006,08,08,10,45,15.30
2006,08,08,10,46,15.30
2006,08,08,10,47,15.30
2006,08,08,10,48,15.40
2006,08,08,10,49,15.50
2006,08,08,10,50,15.50
2006,08,08,10,51,15.50
2006,08,08,10,52,15.60
2006,08,08,10,53,15.60
2006,08,08,10,54,15.70
2006,08,08,10,55,15.70
2006,08,08,10,56,15.60
2006,08,08,10,57,15.50
2006,08,08,10,58,15.50
2006,08,08,10,59,15.60
2006,08,08,11,00,15.60
2006,08,08,11,01,15.60
2006,08,08,11,02,15.60
2006,08,08,11,03,15.70
2006,08,08,11,04,15.70
2006,08,08,11,05,15.70
2006,08,08,11,06,15.80
2006,08,08,11,07,15.80
2006,08,08,11,08,15.80
2006,08,08,11,09,15.80
2006,08,08,11,10,15.70
2006,08,08,11,11,15.70
2006,08,08,11,12,15.60
2006,08,08,11,13,15.60
2006,08,08,11,14,15.50
2006,08,08,11,15,15.50
2006,08,08,11,16,15.50
2006,08,08,11,17,15.50
2006,08,08,11,18,15.40
2006,08,08,11,19,15.30
2006,08,08,11,20,15.40
2006,08,08,11,21,15.50
2006,08,08,11,22,15.50
2006,08,08,11,23,15.50
2006,08,08,11,24,15.50
2006,08,08,11,25,15.50
2006,08,08,11,26,15.60
2006,08,08,11,27,15.60
2006,08,08,11,28,15.60
2006,08,08,11,29,15.50
2006,08,08,11,30,15.50
2006,08,08,11,31,15.50
2006,08,08,11,32,15.40
2006,08,08,11,33,15.40
2006,08,08,11,34,15.40
2006,08,08,11,35,15.40
2006,08,08,11,36,15.40
2006,08,08,11,37,15.40
2006,08,08,11,38,15.40
2006,08,08,11,39,15.40
2006,08,08,11,40,15.40
2006,08,08,11,41,15.40
2006,08,08,11,42,15.50
2006,08,08,11,43,15.50
2006,08,08,11,44,15.50
2006,08,08,11,45,15.40
2006,08,08,11,46,15.40
2006,08,08,11,47,15.40
2006,08,08,11,48,15.50
2006,08,08,11,49,15.50
2006,08,08,11,50,15.60
2006,08,08,11,51,15.60
2006,08,08,11,52,15.60
2006,08,08,11,53,15.60
2006,08,08,11,54,15.60
2006,08,08,11,55,15.60
2006,08,08,11,56,15.70
2006,08,08,11,57,15.70
2006,08,08,11,58,15.70
2006,08,08,11,59,15.60
2006,08,08,12,00,15.60
2006,08,08,12,01,15.60
2006,08,08,12,02,15.70
2006,08,08,12,03,15.70
2006,08,08,12,04,15.70
2006,08,08,12,05,15.70
2006,08,08,12,06,15.70
2006,08,08,12,07,15.60
2006,08,08,12,08,15.60
2006,08,08,12,09,15.60
2006,08,08,12,10,15.60
2006,08,08,12,11,15.70
2006,08,08,12,12,15.70
2006,08,08,12,13,15.70
2006,08,08,12,14,15.70
2006,08,08,12,15,15.80
2006,08,08,12,16,15.80
2006,08,08,12,17,15.80
2006,08,08,12,18,15.80
2006,08,08,12,19,15.90
2006,08,08,12,20,15.90
2006,08,08,12,21,15.90
2006,08,08,12,22,15.90
2006,08,08,12,23,15.90
2006,08,08,12,24,15.90
2006,08,08,12,25,15.80
2006,08,08,12,26,15.80
2006,08,08,12,27,15.80
2006,08,08,12,28,15.80
2006,08,08,12,29,15.80
2006,08,08,12,30,15.80
2006,08,08,12,31,15.80
2006,08,08,12,32,15.80
2006,08,08,12,33,15.80
2006,08,08,12,34,15.90
2006,08,08,12,35,15.90
2006,08,08,12,36,15.90
2006,08,08,12,37,15.90
2006,08,08,12,38,15.80
2006,08,08,12,39,15.80
2006,08,08,12,40,15.80
2006,08,08,12,41,15.80
2006,08,08,12,42,15.80
2006,08,08,12,43,15.80
2006,08,08,12,44,15.90
2006,08,08,12,45,16.00
2006,08,08,12,46,16.10
2006,08,08,12,47,16.10
2006,08,08,12,48,16.10
2006,08,08,12,49,16.10
2006,08,08,12,50,16.10
2006,08,08,12,51,16.10
2006,08,08,12,52,16.20
2006,08,08,12,53,16.30
2006,08,08,12,54,16.40
2006,08,08,12,55,16.40
2006,08,08,12,56,16.40
2006,08,08,12,57,16.40
2006,08,08,12,58,16.40
2006,08,08,12,59,16.40
2006,08,08,13,00,16.40
2006,08,08,13,01,16.40
2006,08,08,13,02,16.40
2006,08,08,13,03,16.40
2006,08,08,13,04,16.40
2006,08,08,13,05,16.40
2006,08,08,13,06,16.60
2006,08,08,13,07,16.70
2006,08,08,13,08,16.70
2006,08,08,13,09,16.70
2006,08,08,13,10,16.70
2006,08,08,13,11,16.70
2006,08,08,13,12,16.70
2006,08,08,13,13,16.70
2006,08,08,13,14,16.80
2006,08,08,13,15,16.90
2006,08,08,13,16,16.90
2006,08,08,13,17,17.00
2006,08,08,13,18,17.00
2006,08,08,13,19,17.10
2006,08,08,13,20,17.20
2006,08,08,13,21,17.30
2006,08,08,13,22,17.30
2006,08,08,13,23,17.30
2006,08,08,13,24,17.30
2006,08,08,13,25,17.40
2006,08,08,13,26,17.40
2006,08,08,13,27,17.40
2006,08,08,13,28,17.40
2006,08,08,13,29,17.40
2006,08,08,13,30,17.40
2006,08,08,13,31,17.50
2006,08,08,13,32,17.50
2006,08,08,13,33,17.60
2006,08,08,13,34,17.60
2006,08,08,13,35,17.60
2006,08,08,13,36,17.60
2006,08,08,13,37,17.50
2006,08,08,13,38,17.50
2006,08,08,13,39,17.40
2006,08,08,13,40,17.40
2006,08,08,13,41,17.40
2006,08,08,13,42,17.40
2006,08,08,13,43,17.30
2006,08,08,13,44,17.30
2006,08,08,13,45,17.30
2006,08,08,13,46,17.30
2006,08,08,13,47,17.40
2006,08,08,13,48,17.40
2006,08,08,13,49,17.40
2006,08,08,13,50,17.40
2006,08,08,13,51,17.50
2006,08,08,13,52,17.50
2006,08,08,13,53,17.50
2006,08,08,13,54,17.60
2006,08,08,13,55,17.70
2006,08,08,13,56,17.70
2006,08,08,13,57,17.80
2006,08,08,13,58,17.90
2006,08,08,13,59,17.90
2006,08,08,14,00,17.90
2006,08,08,14,01,17.90
2006,08,08,14,02,17.90
2006,08,08,14,03,17.90
2006,08,08,14,04,17.90
2006,08,08,14,05,17.90
2006,08,08,14,06,17.90
2006,08,08,14,07,17.90
2006,08,08,14,08,18.00
2006,08,08,14,09,17.90
2006,08,08,14,10,18.00
2006,08,08,14,11,18.10
2006,08,08,14,12,18.10
2006,08,08,14,13,18.10
2006,08,08,14,14,18.20
2006,08,08,14,15,18.10
2006,08,08,14,16,18.00
2006,08,08,14,17,17.90
2006,08,08,14,18,17.90
2006,08,08,14,19,17.80
2006,08,08,14,20,17.70
2006,08,08,14,21,17.70
2006,08,08,14,22,17.70
2006,08,08,14,23,17.60
2006,08,08,14,24,17.50
2006,08,08,14,25,17.50
2006,08,08,14,26,17.50
2006,08,08,14,27,17.60
2006,08,08,14,28,17.60
2006,08,08,14,29,17.50
2006,08,08,14,30,17.40
2006,08,08,14,31,17.40
2006,08,08,14,32,17.30
2006,08,08,14,33,17.30
2006,08,08,14,34,17.30
2006,08,08,14,35,17.30
2006,08,08,14,36,17.30
2006,08,08,14,37,17.30
2006,08,08,14,38,17.30
2006,08,08,14,39,17.30
2006,08,08,14,40,17.30
2006,08,08,14,41,17.30
2006,08,08,14,42,17.30
2006,08,08,14,43,17.30
2006,08,08,14,44,17.30
2006,08,08,14,45,17.20
2006,08,08,14,46,17.10
2006,08,08,14,47,17.10
2006,08,08,14,48,17.00
2006,08,08,14,49,17.00
2006,08,08,14,50,17.00
2006,08,08,14,51,16.90
2006,08,08,14,52,16.90
2006,08,08,14,53,16.90
2006,08,08,14,54,16.80
2006,08,08,14,55,16.80
2006,08,08,14,56,16.90
2006,08,08,14,57,16.90
2006,08,08,14,58,16.90
2006,08,08,14,59,17.00
2006,08,08,15,00,17.00
2006,08,08,15,01,17.00
2006,08,08,15,02,17.00
2006,08,08,15,03,17.10
2006,08,08,15,04,17.20
2006,08,08,15,05,17.20
2006,08,08,15,06,17.30
2006,08,08,15,07,17.30
2006,08,08,15,08,17.30
2006,08,08,15,09,17.30
2006,08,08,15,10,17.30
2006,08,08,15,11,17.30
2006,08,08,15,12,17.30
2006,08,08,15,13,17.30
2006,08,08,15,14,17.30
2006,08,08,15,15,17.40
2006,08,08,15,16,17.40
2006,08,08,15,17,17.40
2006,08,08,15,18,17.40
2006,08,08,15,19,17.40
2006,08,08,15,20,17.40
2006,08,08,15,21,17.40
2006,08,08,15,22,17.40
2006,08,08,15,23,17.40
2006,08,08,15,24,17.40
2006,08,08,15,25,17.30
2006,08,08,15,26,17.30
2006,08,08,15,27,17.30
2006,08,08,15,28,17.10
2006,08,08,15,29,17.00
2006,08,08,15,30,16.90
2006,08,08,15,31,16.80
2006,08,08,15,32,16.70
2006,08,08,15,33,16.60
2006,08,08,15,34,16.40
2006,08,08,15,35,16.40
2006,08,08,15,36,16.30
2006,08,08,15,37,16.20
2006,08,08,15,38,16.20
2006,08,08,15,39,16.20
2006,08,08,15,40,16.20
2006,08,08,15,41,16.10
2006,08,08,15,42,16.10
2006,08,08,15,43,16.10
2006,08,08,15,44,16.10
2006,08,08,15,45,16.10
2006,08,08,15,46,16.10
2006,08,08,15,47,16.10
2006,08,08,15,48,16.10
2006,08,08,15,49,16.10
2006,08,08,15,50,16.10
2006,08,08,15,51,16.10
2006,08,08,15,52,16.10
2006,08,08,15,53,16.10
2006,08,08,15,54,16.10
2006,08,08,15,55,16.10
2006,08,08,15,56,16.20
2006,08,08,15,57,16.20
2006,08,08,15,58,16.20
2006,08,08,15,59,16.30
2006,08,08,16,00,16.30
2006,08,08,16,01,16.40
2006,08,08,16,02,16.40
2006,08,08,16,03,16.40
2006,08,08,16,04,16.40
2006,08,08,16,05,16.40
2006,08,08,16,06,16.50
2006,08,08,16,07,16.40
2006,08,08,16,08,16.40
2006,08,08,16,09,16.40
2006,08,08,16,10,16.40
2006,08,08,16,11,16.40
2006,08,08,16,12,16.40
2006,08,08,16,13,16.40
2006,08,08,16,14,16.50
2006,08,08,16,15,16.60
2006,08,08,16,16,16.60
2006,08,08,16,17,16.70
2006,08,08,16,18,16.70
2006,08,08,16,19,16.70
2006,08,08,16,20,16.70
2006,08,08,16,21,16.70
2006,08,08,16,22,16.70
2006,08,08,16,23,16.70
2006,08,08,16,24,16.80
2006,08,08,16,25,16.80
2006,08,08,16,26,16.80
2006,08,08,16,27,16.80
2006,08,08,16,28,16.80
2006,08,08,16,29,16.80
2006,08,08,16,30,16.80
2006,08,08,16,31,16.80
2006,08,08,16,32,16.80
2006,08,08,16,33,16.80
2006,08,08,16,34,16.80
2006,08,08,16,35,16.80
2006,08,08,16,36,16.80
2006,08,08,16,37,16.80
2006,08,08,16,38,16.80
2006,08,08,16,39,16.80
2006,08,08,16,40,16.80
2006,08,08,16,41,16.80
2006,08,08,16,42,16.80
2006,08,08,16,43,16.90
2006,08,08,16,44,17.00
2006,08,08,16,45,17.00
2006,08,08,16,46,17.10
2006,08,08,16,47,17.10
2006,08,08,16,48,17.20
2006,08,08,16,49,17.30
2006,08,08,16,50,17.30
2006,08,08,16,51,17.30
2006,08,08,16,52,17.40
2006,08,08,16,53,17.40
2006,08,08,16,54,17.40
2006,08,08,16,55,17.50
2006,08,08,16,56,17.50
2006,08,08,16,57,17.50
2006,08,08,16,58,17.50
2006,08,08,16,59,17.60
2006,08,08,17,00,17.60
2006,08,08,17,01,17.60
2006,08,08,17,02,17.70
2006,08,08,17,03,17.70
2006,08,08,17,04,17.70
2006,08,08,17,05,17.80
2006,08,08,17,06,17.80
2006,08,08,17,07,17.70
2006,08,08,17,08,17.70
2006,08,08,17,09,17.70
2006,08,08,17,10,17.60
2006,08,08,17,11,17.70
2006,08,08,17,12,17.70
2006,08,08,17,13,17.60
2006,08,08,17,14,17.60
2006,08,08,17,15,17.60
2006,08,08,17,16,17.60
2006,08,08,17,17,17.60
2006,08,08,17,18,17.70
2006,08,08,17,19,17.70
2006,08,08,17,20,17.70
2006,08,08,17,21,17.60
2006,08,08,17,22,17.60
2006,08,08,17,23,17.60
2006,08,08,17,24,17.60
2006,08,08,17,25,17.60
2006,08,08,17,26,17.60
2006,08,08,17,27,17.60